FW2976 Weather Reports


Display with metric or nautical units.
time (UTC)temp
F
wind
direction
speed
MPH
gust
MPH
rain 1hr
in
rain 24hr
in
rain mn
in
humidity
%
barometer
mb
20260906210518 91 101 9.0 19.0 0.00 0.00 0.00 22 1013.9
20260906210050 91 88 11.0 22.0 0.00 0.00 0.00 21 1013.8
20260906205524 91 94 11.0 22.0 0.00 0.00 0.00 21 1013.9
20260906205022 91 59 11.0 21.0 0.00 0.00 0.00 21 1014.0
20260906204554 92 79 9.0 17.0 0.00 0.00 0.00 21 1014.0
20260906204019 92 97 4.0 17.0 0.00 0.00 0.00 20 1014.0
20260906203521 92 128 6.0 12.0 0.00 0.00 0.00 20 1014.2
20260906203045 92 114 7.0 12.0 0.00 0.00 0.00 19 1014.3
20260906202521 92 72 6.0 11.0 0.00 0.00 0.00 20 1014.3
20260906202021 91 122 4.0 15.0 0.00 0.00 0.00 21 1014.4
20260906201549 91 69 7.0 15.0 0.00 0.00 0.00 20 1014.6
20260906201023 91 79 8.0 14.0 0.00 0.00 0.00 20 1014.6
20260906200527 91 63 5.0 12.0 0.00 0.00 0.00 21 1014.7
20260906200045 90 70 7.0 12.0 0.00 0.00 0.00 21 1014.8
20260906195526 90 61 5.0 11.0 0.00 0.00 0.00 21 1014.8
20260906195028 90 124 7.0 11.0 0.00 0.00 0.00 22 1014.9
20260906194601 90 84 7.0 11.0 0.00 0.00 0.00 21 1014.7
20260906194025 90 87 5.0 11.0 0.00 0.00 0.00 21 1014.9
20260906193524 90 101 5.0 11.0 0.00 0.00 0.00 21 1014.9
20260906193043 89 49 5.0 11.0 0.00 0.00 0.00 21 1015.0
20260906192521 89 98 6.0 11.0 0.00 0.00 0.00 22 1015.1
20260906192024 89 86 4.0 11.0 0.00 0.00 0.00 21 1015.2
20260906191547 89 56 5.0 11.0 0.00 0.00 0.00 22 1015.3
20260906191024 89 85 6.0 12.0 0.00 0.00 0.00 22 1015.3
20260906190523 89 78 6.0 12.0 0.00 0.00 0.00 24 1015.4
20260906190042 89 103 4.0 9.0 0.00 0.00 0.00 24 1015.4
20260906185523 89 86 5.0 11.0 0.00 0.00 0.00 22 1015.5
20260906185018 88 141 3.0 11.0 0.00 0.00 0.00 25 1015.6
20260906184544 88 107 4.0 11.0 0.00 0.00 0.00 25 1015.6
20260906184023 88 76 2.0 9.0 0.00 0.00 0.00 25 1015.7
20260906183518 87 134 5.0 11.0 0.00 0.00 0.00 25 1015.8
20260906183059 88 104 6.0 11.0 0.00 0.00 0.00 23 1015.9
20260906182521 88 69 4.0 7.0 0.00 0.00 0.00 24 1015.9
20260906182022 87 78 3.0 10.0 0.00 0.00 0.00 24 1016.0
20260906181546 87 57 1.0 10.0 0.00 0.00 0.00 25 1016.1
20260906181024 87 73 6.0 10.0 0.00 0.00 0.00 24 1016.2
20260906180520 87 275 2.0 10.0 0.00 0.00 0.00 23 1016.3
20260906180100 87 313 3.0 10.0 0.00 0.00 0.00 24 1016.3
20260906175527 86 56 5.0 10.0 0.00 0.00 0.00 25 1016.3
20260906175023 86 133 5.0 9.0 0.00 0.00 0.00 25 1016.4
20260906174550 86 77 4.0 11.0 0.00 0.00 0.00 25 1016.5
20260906174019 86 117 5.0 11.0 0.00 0.00 0.00 26 1016.5
20260906173523 86 109 7.0 11.0 0.00 0.00 0.00 27 1016.7
20260906173046 86 83 4.0 10.0 0.00 0.00 0.00 25 1016.6
20260906172521 86 78 3.0 10.0 0.00 0.00 0.00 25 1016.7
20260906172018 87 86 3.0 8.0 0.00 0.00 0.00 25 1016.7
20260906171611 87 0 2.0 8.0 0.00 0.00 0.00 25 1016.8
20260906171020 87 73 3.0 7.0 0.00 0.00 0.00 26 1016.9
20260906170518 86 0 2.0 7.0 0.00 0.00 0.00 25 1016.9
20260906170049 86 58 2.0 8.0 0.00 0.00 0.00 26 1017.0
20260906165524 86 67 3.0 9.0 0.00 0.00 0.00 26 1017.0
20260906165024 86 52 3.0 9.0 0.00 0.00 0.00 26 1017.1
20260906164544 86 64 4.0 9.0 0.00 0.00 0.00 27 1017.1
20260906164019 86 66 1.0 6.0 0.00 0.00 0.00 27 1017.2
20260906163519 86 300 2.0 7.0 0.00 0.00 0.00 28 1017.3
20260906163043 86 98 2.0 7.0 0.00 0.00 0.00 28 1017.4
20260906162518 86 238 1.0 4.0 0.00 0.00 0.00 27 1017.4
20260906162020 85 42 1.0 5.0 0.00 0.00 0.00 28 1017.4
20260906161554 84 61 0.0 7.0 0.00 0.00 0.00 29 1017.4
20260906161020 84 53 2.0 7.0 0.00 0.00 0.00 29 1017.4
20260906160520 84 86 3.0 6.0 0.00 0.00 0.00 29 1017.4
20260906160040 84 77 1.0 6.0 0.00 0.00 0.00 30 1017.5
20260906155520 84 57 2.0 6.0 0.00 0.00 0.00 30 1017.5
20260906155020 84 48 2.0 5.0 0.00 0.00 0.00 30 1017.5
20260906154548 83 72 1.0 5.0 0.00 0.00 0.00 31 1017.4
20260906154025 83 78 2.0 5.0 0.00 0.00 0.00 30 1017.4
20260906153524 83 71 2.0 5.0 0.00 0.00 0.00 30 1017.3
20260906153102 83 159 1.0 5.0 0.00 0.00 0.00 30 1017.2
20260906152519 83 93 2.0 5.0 0.00 0.00 0.00 30 1017.1
20260906152017 82 53 2.0 9.0 0.00 0.00 0.00 31 1017.1
20260906151542 82 95 2.0 9.0 0.00 0.00 0.00 31 1017.1
20260906151017 82 92 2.0 7.0 0.00 0.00 0.00 31 1017.2
20260906150524 81 96 3.0 7.0 0.00 0.00 0.00 32 1017.2
20260906150046 81 119 2.0 5.0 0.00 0.00 0.00 32 1017.3
20260906145520 81 90 2.0 4.0 0.00 0.00 0.00 31 1017.4
20260906145019 81 84 1.0 3.0 0.00 0.00 0.00 32 1017.4
20260906144543 81 84 1.0 3.0 0.00 0.00 0.00 33 1017.3
20260906144018 80 84 0.0 3.0 0.00 0.00 0.00 34 1017.4
20260906143519 79 0 0.0 3.0 0.00 0.00 0.00 35 1017.4
20260906143042 78 84 0.0 2.0 0.00 0.00 0.00 37 1017.5
20260906142518 77 0 0.0 3.0 0.00 0.00 0.00 36 1017.4
20260906142023 77 82 0.0 3.0 0.00 0.00 0.00 38 1017.5
20260906141547 76 82 0.0 2.0 0.00 0.00 0.00 39 1017.5
20260906141017 75 0 0.0 2.0 0.00 0.00 0.00 40 1017.5
20260906140518 74 0 0.0 2.0 0.00 0.00 0.00 41 1017.4
20260906140041 74 92 1.0 6.0 0.00 0.00 0.00 42 1017.4
20260906135525 73 83 0.0 6.0 0.00 0.00 0.00 43 1017.3
20260906135019 72 81 2.0 6.0 0.00 0.00 0.00 44 1017.3
20260906134542 72 187 1.0 4.0 0.00 0.00 0.00 43 1017.3
20260906134018 72 186 0.0 4.0 0.00 0.00 0.00 44 1017.3
20260906133518 72 186 1.0 4.0 0.00 0.00 0.00 46 1017.3
20260906133045 71 211 2.0 3.0 0.00 0.00 0.00 46 1017.1
20260906132523 70 210 0.0 3.0 0.00 0.00 0.00 44 1017.3
20260906132018 70 0 0.0 3.0 0.00 0.00 0.00 45 1017.4
20260906131557 71 209 1.0 5.0 0.00 0.00 0.00 46 1017.3
20260906131021 71 210 2.0 5.0 0.00 0.00 0.00 45 1017.3
20260906130519 71 273 2.0 6.0 0.00 0.00 0.00 45 1017.2
20260906130054 71 273 2.0 6.0 0.00 0.00 0.00 45 1017.2
20260906125519 71 269 2.0 8.0 0.00 0.00 0.00 45 1017.2
20260906125019 71 237 2.0 8.0 0.00 0.00 0.00 45 1017.2
20260906124543 71 265 6.0 9.0 0.00 0.00 0.00 45 1017.1
20260906124021 71 275 6.0 9.0 0.00 0.00 0.00 45 1017.2
20260906123518 71 254 5.0 9.0 0.00 0.00 0.00 45 1017.2
20260906123042 70 283 5.0 8.0 0.00 0.00 0.00 45 1017.2
20260906122520 70 274 5.0 7.0 0.00 0.00 0.00 46 1017.2
20260906122018 70 239 1.0 8.0 0.00 0.00 0.00 45 1017.2
20260906121541 70 249 3.0 8.0 0.00 0.00 0.00 46 1017.1
20260906121029 70 263 4.0 7.0 0.00 0.00 0.00 46 1017.2
20260906120527 70 259 2.0 7.0 0.00 0.00 0.00 46 1017.2
20260906120045 70 254 4.0 7.0 0.00 0.00 0.00 46 1017.1
20260906115524 69 282 4.0 8.0 0.00 0.00 0.00 46 1017.1
20260906115018 70 244 5.0 8.0 0.00 0.00 0.00 46 1017.2
20260906114548 69 263 4.0 8.0 0.00 0.00 0.00 47 1017.1
20260906114019 67 238 5.0 7.0 0.00 0.00 0.00 50 1017.2
20260906113521 65 252 1.0 4.0 0.00 0.00 0.00 51 1017.2
20260906113042 66 247 2.0 4.0 0.00 0.00 0.00 50 1017.2
20260906112517 67 248 1.0 4.0 0.00 0.00 0.00 49 1017.1
20260906112020 67 249 2.0 4.0 0.00 0.00 0.00 48 1017.1
20260906111547 68 262 2.0 4.0 0.00 0.00 0.00 48 1017.1
20260906111024 68 263 2.0 4.0 0.00 0.00 0.00 47 1017.2
20260906110518 68 290 2.0 4.0 0.00 0.00 0.00 48 1017.1
20260906110044 68 292 0.0 2.0 0.00 0.00 0.00 48 1017.2
20260906105524 69 0 0.0 1.0 0.00 0.00 0.00 46 1017.1
20260906105024 69 0 0.0 1.0 0.00 0.00 0.00 46 1017.1
20260906104541 69 0 0.0 3.0 0.00 0.00 0.00 46 1017.1
20260906104019 70 0 0.0 3.0 0.00 0.00 0.00 46 1017.0
20260906103519 70 0 1.0 3.0 0.00 0.00 0.00 46 1017.1
20260906103047 69 292 2.0 4.0 0.00 0.00 0.00 47 1017.1
20260906102519 69 293 0.0 4.0 0.00 0.00 0.00 47 1017.0
20260906102019 69 294 2.0 4.0 0.00 0.00 0.00 47 1017.0
20260906101544 69 269 1.0 4.0 0.00 0.00 0.00 46 1016.9
20260906101017 69 0 0.0 4.0 0.00 0.00 0.00 46 1016.8
20260906100528 69 275 0.0 4.0 0.00 0.00 0.00 46 1016.8
20260906100042 69 0 0.0 4.0 0.00 0.00 0.00 46 1016.8
20260906095525 70 275 1.0 4.0 0.00 0.00 0.00 45 1016.8
20260906095019 71 176 1.0 7.0 0.00 0.00 0.00 43 1016.8
20260906094545 71 274 2.0 9.0 0.00 0.00 0.00 42 1016.7
20260906094023 71 279 5.0 9.0 0.00 0.00 0.00 42 1016.7
20260906093519 71 275 4.0 8.0 0.00 0.00 0.00 43 1016.6
20260906093045 71 244 3.0 7.0 0.00 0.00 0.00 43 1016.6
20260906092520 71 283 4.0 7.0 0.00 0.00 0.00 43 1016.5
20260906092018 71 271 2.0 4.0 0.00 0.00 0.00 44 1016.7
20260906091549 72 253 1.0 3.0 0.00 0.00 0.00 43 1016.7
20260906091021 71 254 2.0 3.0 0.00 0.00 0.00 44 1016.7
20260906090523 71 252 0.0 5.0 0.00 0.00 0.00 43 1016.8
20260906090052 72 0 1.0 7.0 0.00 0.00 0.00 43 1016.9
20260906085519 71 290 3.0 7.0 0.00 0.00 0.00 44 1016.8
20260906085023 70 281 4.0 7.0 0.00 0.00 0.00 45 1016.8
20260906084543 70 289 2.0 4.0 0.00 0.00 0.00 45 1016.9
20260906084030 70 288 0.0 4.0 0.00 0.00 0.00 44 1017.0
20260906083521 70 286 2.0 6.0 0.00 0.00 0.00 44 1017.0
20260906083047 70 0 2.0 6.0 0.00 0.00 0.00 44 1017.0
20260906082520 70 267 3.0 6.0 0.00 0.00 0.00 44 1017.0
20260906082018 71 282 2.0 4.0 0.00 0.00 0.00 43 1017.0
20260906081541 71 0 0.0 2.0 0.00 0.00 0.00 43 1017.1
20260906081024 71 0 0.0 2.0 0.00 0.00 0.00 42 1017.0
20260906080524 71 0 0.0 3.0 0.00 0.00 0.00 43 1017.0
20260906080046 72 65 1.0 5.0 0.00 0.00 0.00 41 1017.0
20260906075613 72 74 2.0 5.0 0.00 0.00 0.00 39 1017.1
20260906075018 74 0 0.0 9.0 0.00 0.00 0.00 37 1017.0
20260906074543 76 300 0.0 9.0 0.00 0.00 0.00 38 1016.7
20260906074020 75 292 4.0 9.0 0.00 0.00 0.00 40 1016.5
20260906073518 74 287 3.0 7.0 0.00 0.00 0.00 40 1016.5
20260906073043 73 309 1.0 5.0 0.00 0.00 0.00 42 1016.6
20260906072518 73 348 1.0 3.0 0.00 0.00 0.00 42 1016.6
20260906072020 73 266 1.0 3.0 0.00 0.00 0.00 40 1016.7
20260906071540 73 233 1.0 3.0 0.00 0.00 0.00 39 1016.6
20260906071024 74 234 1.0 2.0 0.00 0.00 0.00 38 1016.7
20260906070518 74 233 0.0 9.0 0.00 0.00 0.00 36 1016.7
20260906070045 75 0 1.0 9.0 0.00 0.00 0.00 36 1016.7
20260906065523 75 267 4.0 11.0 0.00 0.00 0.00 36 1016.7
20260906065022 76 263 6.0 11.0 0.00 0.00 0.00 35 1016.7
20260906064543 76 265 6.0 10.0 0.00 0.00 0.00 35 1016.8
20260906064017 75 313 4.0 7.0 0.00 0.00 0.00 35 1016.8
20260906063521 75 272 2.0 8.0 0.00 0.00 0.00 35 1016.8
20260906063043 75 266 4.0 10.0 0.00 0.00 0.00 34 1016.8
20260906062525 75 281 7.0 10.0 0.00 0.00 0.00 34 1017.0
20260906062019 75 244 3.0 8.0 0.00 0.00 0.00 34 1016.9
20260906061549 76 254 3.0 8.0 0.00 0.00 0.00 34 1017.0
20260906061020 77 209 3.0 9.0 0.00 0.00 0.00 33 1017.1
20260906060523 76 241 6.0 9.0 0.00 0.00 0.00 37 1017.0
20260906060054 74 317 0.0 3.0 0.00 0.00 0.00 33 1017.2
20260906055524 74 318 1.0 4.0 0.00 0.00 0.00 33 1017.3
20260906055020 74 244 0.0 4.0 0.00 0.00 0.00 32 1017.2
20260906054546 73 238 1.0 4.0 0.00 0.00 0.00 33 1017.1
20260906054019 72 238 2.0 4.0 0.00 0.00 0.00 34 1017.1
20260906053521 73 236 2.0 4.0 0.00 0.00 0.00 34 1017.1
20260906053043 74 242 2.0 4.0 0.00 0.00 0.00 33 1017.2
20260906052520 75 267 2.0 4.0 0.00 0.00 0.00 32 1017.1
20260906052018 76 271 3.0 4.0 0.00 0.00 0.00 32 1017.1
20260906051541 76 261 1.0 4.0 0.00 0.00 0.00 32 1017.2
20260906051021 76 261 2.0 4.0 0.00 0.00 0.00 32 1017.3
20260906050527 76 153 1.0 5.0 0.00 0.00 0.00 31 1017.4
20260906050045 76 0 1.0 5.0 0.00 0.00 0.00 32 1017.3
20260906045524 76 275 1.0 4.0 0.00 0.00 0.00 30 1017.1
20260906045019 76 281 2.0 4.0 0.00 0.00 0.00 31 1017.2
20260906044542 76 142 0.0 3.0 0.00 0.00 0.00 30 1017.2
20260906044020 77 138 1.0 3.0 0.00 0.00 0.00 29 1017.1
20260906043521 77 128 0.0 3.0 0.00 0.00 0.00 31 1017.1
20260906043040 77 128 0.0 3.0 0.00 0.00 0.00 31 1017.1
20260906042523 77 128 1.0 4.0 0.00 0.00 0.00 29 1017.1
20260906042024 78 0 2.0 13.0 0.00 0.00 0.00 28 1017.2
20260906041546 79 164 7.0 13.0 0.00 0.00 0.00 28 1016.9
20260906041024 80 196 3.0 6.0 0.00 0.00 0.00 27 1016.8
20260906040524 80 249 3.0 6.0 0.00 0.00 0.00 28 1017.1
20260906040045 80 311 3.0 5.0 0.00 0.00 0.00 29 1017.1
20260906035518 80 290 1.0 5.0 0.00 0.00 0.00 28 1017.2
20260906035018 80 59 2.0 5.0 0.00 0.00 0.00 26 1017.1
20260906034557 80 69 2.0 5.0 0.00 0.00 0.00 25 1017.2
20260906034020 80 61 1.0 4.0 0.00 0.00 0.00 26 1017.1
20260906033517 81 49 1.0 5.0 0.00 0.00 0.00 25 1017.1
20260906033044 81 305 0.0 5.0 0.00 0.00 0.00 24 1017.0
20260906032523 82 299 1.0 8.0 0.00 0.00 0.00 24 1017.0
20260906032025 82 0 0.0 12.0 0.00 0.00 0.00 24 1017.0
20260906031544 82 262 3.0 12.0 0.00 0.00 0.00 24 1016.8
20260906031024 82 267 7.0 12.0 0.00 0.00 0.00 24 1016.7
20260906030521 82 268 7.0 13.0 0.00 0.00 0.00 24 1016.8
20260906030044 83 248 4.0 13.0 0.00 0.00 0.00 23 1016.6
20260906025523 83 244 6.0 15.0 0.00 0.00 0.00 23 1016.6
20260906025018 83 234 7.0 15.0 0.00 0.00 0.00 22 1016.6
20260906024543 83 217 8.0 16.0 0.00 0.00 0.00 22 1016.5
20260906024022 83 222 7.0 16.0 0.00 0.00 0.00 21 1016.5
20260906023525 83 227 7.0 16.0 0.00 0.00 0.00 21 1016.5
20260906023040 83 216 7.0 16.0 0.00 0.00 0.00 21 1016.4
20260906022522 84 216 8.0 16.0 0.00 0.00 0.00 20 1016.4
20260906022020 84 245 9.0 17.0 0.00 0.00 0.00 19 1016.3
20260906021544 84 206 6.0 17.0 0.00 0.00 0.00 19 1016.3
20260906021017 84 210 7.0 14.0 0.00 0.00 0.00 19 1016.2
20260906020518 84 261 6.0 12.0 0.00 0.00 0.00 19 1016.1
20260906020042 84 176 5.0 15.0 0.00 0.00 0.00 19 1016.1
20260906015524 84 239 7.0 16.0 0.00 0.00 0.00 19 1016.1
20260906015025 84 204 5.0 16.0 0.00 0.00 0.00 19 1016.1
20260906014548 84 265 6.0 11.0 0.00 0.00 0.00 19 1016.2
20260906014028 84 254 5.0 11.0 0.00 0.00 0.00 20 1016.2
20260906013519 85 205 4.0 12.0 0.00 0.00 0.00 20 1016.2
20260906013044 85 236 3.0 12.0 0.00 0.00 0.00 20 1016.2
20260906012519 85 167 3.0 9.0 0.00 0.00 0.00 20 1016.4
20260906012019 85 171 2.0 7.0 0.00 0.00 0.00 19 1016.5
20260906011542 85 167 1.0 6.0 0.00 0.00 0.00 20 1016.4
20260906011021 85 241 3.0 6.0 0.00 0.00 0.00 19 1016.4
20260906010519 85 217 2.0 5.0 0.00 0.00 0.00 20 1016.3
20260906010054 85 265 1.0 4.0 0.00 0.00 0.00 20 1016.2
20260906005517 85 0 0.0 2.0 0.00 0.00 0.00 19 1016.4
20260906005020 85 0 0.0 1.0 0.00 0.00 0.00 19 1016.4
20260906004555 85 0 0.0 1.0 0.00 0.00 0.00 19 1016.4
20260906004026 85 0 0.0 1.0 0.00 0.00 0.00 19 1016.4
20260906003524 85 0 0.0 5.0 0.00 0.00 0.00 19 1016.4
20260906003043 86 0 0.0 7.0 0.00 0.00 0.00 20 1016.3
20260906002520 85 279 2.0 7.0 0.00 0.00 0.00 19 1016.3
20260906002019 86 245 1.0 4.0 0.00 0.00 0.00 19 1016.2
20260906001557 86 172 1.0 4.0 0.00 0.00 0.00 19 1016.2
20260906001018 86 78 1.0 3.0 0.00 0.00 0.00 18 1016.2
20260906000520 86 78 1.0 4.0 0.00 0.00 0.00 19 1016.3
20260906000047 86 0 0.0 4.0 0.00 0.00 0.00 18 1016.3
20260905235525 86 80 2.0 4.0 0.00 0.00 0.00 18 1016.3
20260905235024 86 111 0.0 3.0 0.00 0.00 0.00 18 1016.3
20260905234543 86 90 1.0 4.0 0.00 0.00 0.00 17 1016.3
20260905234019 87 0 0.0 4.0 0.00 0.00 0.00 17 1016.2
20260905233524 87 47 1.0 4.0 0.00 0.00 0.00 17 1016.3
20260905233044 87 78 1.0 4.0 0.00 0.00 0.00 16 1016.4
20260905232525 87 300 1.0 4.0 0.00 0.00 0.00 16 1016.4
20260905232022 88 49 1.0 4.0 0.00 0.00 0.00 16 1016.4
20260905231542 88 56 1.0 9.0 0.00 0.00 0.00 15 1016.3
20260905231028 89 34 2.0 9.0 0.00 0.00 0.00 15 1016.2
20260905230525 89 83 2.0 9.0 0.00 0.00 0.00 15 1016.1
20260905230043 89 67 2.0 6.0 0.00 0.00 0.00 15 1016.1
20260905225530 89 17 2.0 6.0 0.00 0.00 0.00 15 1016.1
20260905225019 89 264 2.0 6.0 0.00 0.00 0.00 14 1016.1
20260905224543 89 58 1.0 8.0 0.00 0.00 0.00 14 1016.0
20260905224018 90 64 2.0 8.0 0.00 0.00 0.00 14 1016.0
20260905223521 90 347 2.0 8.0 0.00 0.00 0.00 13 1016.1
20260905223050 90 67 2.0 5.0 0.00 0.00 0.00 13 1016.0
20260905222523 91 55 2.0 9.0 0.00 0.00 0.00 13 1016.0
20260905222025 90 0 2.0 9.0 0.00 0.00 0.00 13 1016.0
20260905221543 90 203 3.0 9.0 0.00 0.00 0.00 14 1016.1
20260905221025 90 53 0.0 8.0 0.00 0.00 0.00 14 1016.1
20260905220527 90 286 3.0 8.0 0.00 0.00 0.00 13 1016.1
20260905220045 90 300 2.0 9.0 0.00 0.00 0.00 13 1016.1
20260905215520 91 315 1.0 9.0 0.00 0.00 0.00 12 1016.2
20260905215019 91 78 3.0 9.0 0.00 0.00 0.00 12 1016.2
20260905214546 91 89 2.0 6.0 0.00 0.00 0.00 13 1016.3
20260905214020 90 344 2.0 6.0 0.00 0.00 0.00 12 1016.4
20260905213518 90 290 2.0 6.0 0.00 0.00 0.00 12 1016.5
20260905213041 90 163 2.0 8.0 0.00 0.00 0.00 13 1016.5
20260905212528 90 98 2.0 8.0 0.00 0.00 0.00 13 1016.5
20260905212020 90 322 2.0 8.0 0.00 0.00 0.00 12 1016.5
20260905211544 90 310 1.0 10.0 0.00 0.00 0.00 13 1016.7
20260905211021 90 103 3.0 10.0 0.00 0.00 0.00 14 1016.6